This demonstration page uses our WeatherBlox Daily Observations layout. Learn more.

Left ArrowRight Arrow

41.55636, -103.73856

Hourly Observations for January 30, 2022

Temp ( °F °C ) Dew Point ( °F °C ) Humidity (%) Winds ( mph kmh ) Pressure ( in mb ) Visibility ( mi km ) Precip ( " mm )
12:58 am 00:58 Clear 31 -0.6 11 -11.5 44 44 W 5 7 30.13 1020 10 16 0.00 0.00
1:58 am 01:58 Clear 31 -0.4 10 -12 42 42 W 8 13 30.13 1020 10 16 0.00 0.00
2:58 am 02:58 Clear 29 -1.8 9 -13 42 42 WSW 7 11 30.12 1020 10 16 0.00 0.00
3:58 am 03:58 Clear 29 -1.8 7 -13.7 40 40 SW 6 9 30.10 1019 10 16 0.00 0.00
4:58 am 04:58 Clear 24 -4.2 10 -12.2 54 54 SSW 13 20 30.13 1020 10 16 0.00 0.00
5:58 am 05:58 Clear 25 -3.8 8 -13.1 49 49 SW 9 15 30.17 1022 10 16 0.00 0.00
6:58 am 06:58 Clear 25 -4.1 7 -13.8 47 47 SW 9 15 30.16 1021 10 16 0.00 0.00
7:58 am 07:58 Sunny 29 -1.7 8 -13.4 41 41 SW 12 19 30.14 1021 10 16 0.00 0.00
8:58 am 08:58 Sunny 37 2.8 10 -12.1 33 33 WSW 8 13 30.11 1020 10 16 0.00 0.00
9:58 am 09:58 Sunny 43 6.2 4 -15.7 19 19 W 15 24 30.09 1019 10 16 0.00 0.00
10:58 am 10:58 Sunny 47 8.6 5 -14.9 17 17 W 17 28 30.05 1018 10 16 0.00 0.00
11:58 am 11:58 Sunny 51 10.4 4 -15.3 15 15 WNW 21 33 30.00 1016 10 16 0.00 0.00
12:58 pm 12:58 Sunny 53 11.7 2 -16.4 12 12 WNW 16 26 29.98 1015 10 16 0.00 0.00
1:58 pm 13:58 Sunny 53 11.6 -1 -18.2 11 11 NW 17 28 29.96 1015 10 16 0.00 0.00
2:58 pm 14:58 Sunny 53 11.6 1 -17 12 12 WNW 14 22 29.98 1015 10 16 0.00 0.00
3:58 pm 15:58 Sunny 52 11.3 2 -16.9 12 12 NW 15 24 29.97 1015 10 16 0.00 0.00
4:58 pm 16:58 Sunny 46 7.9 7 -13.7 20 20 WNW 9 15 30.02 1017 10 16 0.00 0.00
5:58 pm 17:58 Clear 39 4 11 -11.4 32 32 W 7 11 30.05 1018 10 16 0.00 0.00
6:58 pm 18:58 Clear 35 1.4 11 -11.4 38 38 SW 7 11 30.09 1019 10 16 0.00 0.00
7:58 pm 19:58 Clear 35 1.8 11 -11.5 37 37 WSW 7 11 30.05 1018 10 16 0.00 0.00
8:58 pm 20:58 Clear 35 1.4 11 -11.8 37 37 SSW 6 9 30.01 1016 10 16 0.00 0.00
9:58 pm 21:58 Clear 34 1.3 9 -12.7 35 35 W 6 9 29.99 1016 10 16 0.00 0.00
10:58 pm 22:58 Clear 32 0.1 8 -13.1 37 37 W 5 7 29.97 1015 10 16 0.00 0.00
11:58 pm 23:58 Clear 31 -0.6 6 -14.2 35 35 SW 6 9 29.94 1014 10 16 0.00 0.00

Powered by AerisWeather